レモン彗星

C/2020 B2 ( Lemmon )

English version
Home page
Updated on August 15, 2020

---------------------------------------------------------------------

・ プロフィール

発見日 2020年1月19日
発見光度 21.1等
発見者 R. A. Kowalski (Mt. Lemmon Survey)

・ 軌道要素

Epoch 2020 Feb. 1.0 TT = JDT 2458880.5
T 2020 Jan. 26.68392 TT                                 Rudenko
q   2.7691670            (2000.0)            P               Q
z  +0.0143354      Peri.  143.75765     -0.76963127     -0.63323042
 +/-0.0000000      Node   354.32153     +0.18275323     -0.09576034
e   0.9603029      Incl.   55.73559     +0.61177525     -0.76801640
From 97 observations 2020 Jan. 19-Feb. 20, mean residual 0".4.

・ 光度変化

        m1 = 14.0 + 5 logΔ + 10.0 log r

---------------------------------------------------------------------

軌道要素はM.P.E.C. 2020-H235に掲載されたものです。
光度グラフはComet for Windowsで作成したものです。

---------------------------------------------------------------------

Copyright(C) Seiichi Yoshida (comet@aerith.net). All rights reserved.